Simultaneous Nadir Overpasses (SNOs) Predictions

Prediction of SNOs between GOES-14 and NOAA-20 Satellite Orbit:

Table of predicted SNOs for the next 14.0 days since TLE Epoch: 1/13/2024
Index Date Time (GOES-14) GOES-14 Lat,Lon NOAA-20 Lat,Lon Distance(km) Time Diff (sec)
1 01/13/2024 20:52:32 0.06,-108.56 -0.69,-112.05 397.21 80
2 01/14/2024 20:36:27 0.06,-108.56 0.32,-107.52 119.43 80
3 01/16/2024 08:58:13 -0.06,-108.56 0.89,-112.77 481.04 80
4 01/17/2024 08:39:27 -0.06,-108.55 -0.12,-108.24 35.69 80
5 01/19/2024 20:39:57 0.05,-108.55 -0.02,-109.01 51.31 80
6 01/20/2024 20:23:51 0.05,-108.55 0.94,-104.46 465.45 80
7 01/22/2024 08:45:38 -0.04,-108.54 0.20,-109.73 135.12 80
8 01/23/2024 08:26:52 -0.04,-108.54 -0.77,-105.19 381.51 80
9 01/24/2024 20:46:07 0.04,-108.53 -0.38,-110.49 222.30 80
10 01/25/2024 20:27:20 0.03,-108.53 0.59,-105.94 294.51 80
